Regional Weather Roundup
Issued by NWS

Home | Current Version | Previous Version | Text Only | Print | Product List | Glossary Off
Versions: 1 2 3 4 5 6 7 8 9 10 11 12 13 14 15 16 17 18 19 20 21 22 23 24 25 26 27 28 29 30 31 32 33 34 35 36 37 38 39 40 41 42 43 44 45 46 47 48 49 50

000
ASUS43 KMPX 031110
RWRMN
WEATHER ROUNDUP FOR MINNESOTA
NATIONAL WEATHER SERVICE TWIN CITIES/CHANHASSEN MN
600 AM CDT TUE MAY 03 2016


NOTE: "FAIR" INDICATES FEW OR NO CLOUDS BELOW 12,000 FEET WITH NO
SIGNIFICANT WEATHER AND/OR OBSTRUCTIONS TO VISIBILITY. N/A MEANS
CURRENT SKY AND/OR WEATHER CONDITIONS ARE NOT AVAILABLE.

MNZ060>063-068>070-031200-
   Twin Cities Metro

CITY           SKY/WX    TMP DP  RH WIND       PRES   REMARKS
TWIN CITIES    PTCLDY    49  37  63 SW3       29.94F
ST PAUL        CLEAR     48  38  68 CALM      29.95F
CRYSTAL        CLEAR     50  37  61 W7        29.92F
BLAINE         CLEAR     50  39  66 SW6       29.93S
EDEN PRAIRIE   CLEAR     46  37  71 SW6       29.94F
SOUTH ST PAUL  CLEAR     50  37  60 W8        29.93F
LAKE ELMO      FAIR      46  37  71 W6        29.93F
$$
MNZ001>005-007-008-013>017-022>024-027-028-031200-
   Northwest Minnesota

CITY           SKY/WX    TMP DP  RH WIND       PRES   REMARKS
BEMIDJI        CLEAR     49  34  56 W10       29.86F
HALLOCK        CLOUDY    52  36  54 W12       29.82F
ROSEAU         CLOUDY    54  39  58 W13       29.79F
WARROAD        CLOUDY    52  39  62 W13G21    29.77F
THIEF RVR FALL PTCLDY    48  34  57 W13       29.86F
CROOKSTON      MOCLDY    50  37  62 W12       29.88F
FOSSTON        CLEAR     46  34  61 SW9       29.89S
DETROIT LAKES  PTCLDY    50  37  62 W7        29.93F
MOORHEAD       CLOUDY    45  36  70 SW7       29.93F
PARK RAPIDS    CLOUDY    43  35  73 W10       29.89F
MAHNOMEN       FAIR      42  34  74 SW7       29.90F
$$
MNZ006-009>011-018-025>026-031200-
   North Central Minnesota

CITY           SKY/WX    TMP DP  RH WIND       PRES   REMARKS
BAUDETTE       CLOUDY    53  35  50 W13       29.76F
FLAG ISLAND    CLOUDY    54  37  54 W14       29.74R
INTL FALLS     CLOUDY    51  34  52 W10       29.74F
WASKISH        CLOUDY    50  43  76 SW14G20   29.81F
BIG FORK       CLOUDY    50  36  57 W7        29.81F
LONGVILLE      CLOUDY    48  36  61 W8        29.86F
GRAND RAPIDS   CLOUDY    52  34  50 W7        29.85F
CRANE LAKE     CLOUDY    52  28  40 SW5       29.75F
ORR            CLOUDY    52  30  43 W8        29.75F
COOK           CLOUDY    48  32  53 W7        29.78F
WALKER         FAIR      51  33  50 W10       29.87S
$$
MNZ012-019>021-037-031200-
   Northeast Minnesota

CITY           SKY/WX    TMP DP  RH WIND       PRES   REMARKS
DULUTH         CLOUDY    48  33  56 W13       29.82F
ELY            CLOUDY    48  32  53 SW6       29.76F
HIBBING        MOCLDY    46  34  62 W6        29.81F
EVELETH        CLOUDY    43  32  65 W6        29.82S
DULUTH HARBOR  CLOUDY    46  37  71 SW10      29.83F
TWO HARBORS    CLOUDY    54  37  54 W8G16     29.78F
SILVER BAY     CLOUDY    50  30  46 W3        29.76F
GRAND MARAIS     N/A     39  34  82 W8        29.74F
G MARAIS ARPRT CLOUDY    46  27  46 W7        29.74F
$$
MNZ029>031-032-039>041-046>048-054>057-064-031200-
   West Central Minnesota

CITY           SKY/WX    TMP DP  RH WIND       PRES   REMARKS
FERGUS FALLS   CLOUDY    43  36  75 CALM      29.94S
WHEATON        CLOUDY    48  41  76 W6        29.99R
MORRIS         CLEAR     43  36  75 W6        29.96S
ALEXANDRIA     CLOUDY    45  37  73 W7        29.95F
ELBOW LAKE     FAIR      43  36  77 NW6       29.96F
WADENA         CLOUDY    43  36  75 W6        29.92S
GLENWOOD       CLOUDY    45  37  76 W10       29.95F
APPLETON       CLEAR     43  37  81 W5        29.97S
BENSON         CLEAR     39  34  81 W5        29.97S
ORTONVILLE     CLEAR     43  37  81 W5        29.97F HAZE
MADISON        CLEAR     41  36  81 W5        29.98S
WILLMAR        FAIR      39  36  87 W6        29.98S
$$
MNZ033>034-036-042>043-049>051-058-059-031200-
   Central Minnesota

CITY           SKY/WX    TMP DP  RH WIND       PRES   REMARKS
ST CLOUD       CLOUDY    40  35  83 CALM      29.92F
SAUK CENTRE    FAIR      41  34  76 CALM      29.94F
PAYNESVILLE    CLEAR     40  34  79 W5        29.95S
AITKIN         CLOUDY    52  30  43 W3        29.87S
PINE RIVER     CLOUDY    48  36  61 W5        29.92F
BRAINERD       PTCLDY    39  32  76 SW5       29.90F
STAPLES        CLOUDY    43  36  75 W7        29.91F
LONG PRAIRIE   FAIR      37  34  87 CALM      29.93F
LITTLE FALLS   CLOUDY    36  32  87 CALM      29.92F
LITCHFIELD     CLEAR     46  37  71 SW5       29.96S
BUFFALO        CLEAR     46  37  73 CALM      29.95F
MAPLE LAKE     CLEAR     46  38  74 SW5       29.94F
HUTCHINSON     PTCLDY    43  37  81 SW5       29.97F
$$
MNZ037-044-045-052-053-031200-
   East Central Minnesota

CITY           SKY/WX    TMP DP  RH WIND       PRES   REMARKS
PRINCETON      CLOUDY    43  36  75 CALM      29.92F
MORA           PTCLDY    43  34  70 SW3       29.91F
CAMBRIDGE      CLOUDY    48  36  61 SW3       29.90F
RUSH CITY      CLOUDY    46  36  69 SW6       29.90F
MOOSE LAKE     CLOUDY    46  32  57 W6        29.85F
HINCKLEY       FAIR      41  36  81 CALM      29.89F
CLOQUET        CLOUDY    50  30  46 W10       29.84F
MCGREGOR       CLOUDY    48  34  57 SW5       29.87F
$$
MNZ071>073-080-081-089-090-097-098-031200-
   Southwest Minnesota

CITY           SKY/WX    TMP DP  RH WIND       PRES   REMARKS
MONTEVIDEO     CLEAR     45  37  76 NW8       29.99S
GRANITE FALLS  CLEAR     43  38  81 SW8       30.00S
CANBY          CLEAR     46  40  81 SW6       29.99F
MARSHALL       CLEAR     46  38  73 W8        29.99
REDWOOD FALLS  CLEAR     47  37  68 W10       29.97F
OLIVIA         CLEAR     41  36  81 W7        29.97S
PIPESTONE      CLEAR     43  37  81 CALM      30.01S
WINDOM         CLEAR     43  37  81 CALM      30.01S
WORTHINGTON    CLEAR     43  37  79 W6        30.02F
JACKSON        PTCLDY    43  36  75 W6        30.02S
TRACY          CLEAR     49  39  69 W8        30.00S
SLAYTON        PTCLDY    47  39  73 W8        30.01F
$$
MNZ065>067-074>077-082>085-091>093-031200-
   South Central Minnesota

CITY           SKY/WX    TMP DP  RH WIND       PRES   REMARKS
MANKATO        CLEAR     46  36  66 W8        29.98S
NEW ULM        CLEAR     43  39  87 W6        29.98S
ST JAMES       PTCLDY    37  34  87 SW7       30.00F
FAIRMONT       CLEAR     45  36  70 W9        30.00S
GLENCOE        CLEAR     46  40  79 W3        29.95F
FARIBAULT      CLEAR     43  39  87 CALM      29.98S
OWATONNA       CLEAR     43  37  81 SW7       29.98F
WASECA         CLEAR     39  34  81 SW5       30.00S
ALBERT LEA     CLEAR     43  39  87 CALM      29.99F
$$
MNZ078>079-086>088-094>096-031200-
   Southeast Minnesota

CITY           SKY/WX    TMP DP  RH WIND       PRES   REMARKS
ROCHESTER      CLEAR     44  39  82 SW13      29.98F
RED WING       CLEAR     37  36  93 CALM      29.94F
STANTON        CLEAR     41  35  79 S5        29.95S
DODGE CENTER   PTCLDY    39  37  93 W8        29.98S
WINONA         CLEAR     41  37  87 CALM      29.97S
AUSTIN         CLEAR     41  37  87 CALM      29.99S
PRESTON        CLEAR     45  38  74 W10       29.99S
$$
ABBREVIATIONS USED IN REMARKS
   TC - TEMPERATURES IN CELSIUS
  WCI - WIND CHILL INDEX
   HX - HEAT INDEX
  VSB - VISIBILITY
$$




USA.gov is the U.S. government's official web portal to all federal, state and local government web resources and services.